Home > Weather > Winchester > Past weeks

Flag for United Kingdom Weather for the Past 2 Weeks in Winchester, England, United Kingdom

Now
39 °F

Sunny.


Feels Like: 39 °F
Forecast: 38 / 44 °F
Wind: 2 mph from Southwest

Location: Middle Wallop

Current Time: Feb 9, 2016 at 8:50:37 AM

Latest Report: Feb 9, 2016 at 7:50 AM


Visibility: 10 mi

Pressure: 29.12 "Hg

Humidity: 87%

Dew point: 36 °F

Location of WinchesterLocation

Historic Weather in Winchester — Graph

°F

Winchester Temperature Yesterday

Maximum temperature yesterday: 48 °F (at 12:50 PM)
Minimum temperature yesterday: 41 °F (at 7:50 PM)
Average temperature yesterday: 45 °F

High & Low Weather Summary for the Past Weeks

 TemperatureHumidityPressure
High55 °F (Jan 25, 1:50 PM)100% (Jan 26, 4:50 AM)30.39 "Hg (Jan 26, 4:50 AM)
Low32 °F (Jan 28, 7:50 AM)53% (Jan 30, 11:50 AM)29.06 "Hg (Feb 8, 5:50 AM)
Average47 °F83%29.86 "Hg
* Reported Jan 25 6:50 AM — Feb 9 6:50 AM, Winchester, Weather by CustomWeather, © 2016

Note: Actual official high and low records may vary slightly from our data, if they occured in-between our weather recording intervals... More about our weather records

Advertising

Winchester Weather History for the Previous 24 Hours

 ConditionsComfort  
Time TempWeatherWind HumidityBarometerVisibility
6:50 AM
Tue, Feb 9
39 °FClear.5 mph87%29.15 "Hg10 mi
5:50 AM39 °FPassing clouds.6 mph87%29.21 "HgN/A
4:50 AM39 °FPassing clouds.5 mph87%29.24 "HgN/A
3:50 AM39 °FPassing clouds.9 mph81%29.27 "HgN/A
2:50 AM39 °FPassing clouds.13 mph81%29.36 "HgN/A
1:50 AM39 °FPassing clouds.12 mph75%29.36 "HgN/A
12:50 AM41 °FPassing clouds.14 mph76%29.39 "HgN/A
11:50 PM
Mon, Feb 8
41 °FPassing clouds.15 mph70%29.39 "HgN/A
10:50 PM41 °FPassing clouds.14 mph76%29.39 "HgN/A
9:50 PM41 °FClear.14 mph70%29.39 "Hg10 mi
8:50 PM43 °FPassing clouds.15 mph66%29.39 "HgN/A
7:50 PM41 °FPassing clouds.13 mph76%29.39 "HgN/A
6:50 PM43 °FPassing clouds.24 mph71%29.36 "HgN/A
5:50 PM46 °FPassing clouds.18 mph66%29.33 "HgN/A
4:50 PM46 °FBroken clouds.25 mph71%29.27 "HgN/A
3:50 PM46 °FSprinkles. Broken clouds.30 mph76%29.24 "HgN/A
3:02 PM45 °FLots of rain. Mostly cloudy.25 mph81%29.21 "Hg2 mi
2:50 PM45 °FSprinkles. Mostly cloudy.31 mph81%29.18 "HgN/A
1:50 PM48 °FSprinkles. Overcast.32 mph66%29.15 "HgN/A
12:50 PM48 °FSprinkles. Partly sunny.29 mph66%29.12 "HgN/A
11:50 AM46 °FSprinkles. Scattered clouds.26 mph71%29.09 "HgN/A
10:50 AM46 °FSprinkles. Broken clouds.21 mph76%29.09 "HgN/A
9:50 AM45 °FSprinkles. Scattered clouds.26 mph71%29.09 "HgN/A
8:50 AM45 °FPassing clouds.23 mph71%29.09 "HgN/A
Weather by CustomWeather, © 2016

See weather overviewHow to use our weather pages